URMMURSS

Guest
Details From URMM - Mineralnyye Vody
To URSS - Sochi
Flight Number -
Tags Generated
Created
Modified
Stats Distance 143 nm / 265 km
Max Altitude 0 ft / 0 m
Waypoints 2
Social Downloads 3
Likes 0
Share VATSIM

Download

Looking for another format? Having issues loading an existing format? Contact us
Advertisement - Login to hide

Notes

Generated

Route

URMM URSS

ID Type Via Altitude Latitude Longitude Leg Dist Tot Dist Heading (true) Name
O URMM APT - 0 ft / 0 m 44.23442˚ 43.06126˚ - 0 nm - -
O URSS APT - 0 ft / 0 m 43.43576˚ 39.94578˚ 143 nm 143 nm 252° / 249° Sochi

Altitude Profile

Advertisement - Login to hide

URMM

Details ICAO URMM (MRV)
Name MINERALNYYE VODY
Region Russia
Timezone Europe/Moscow (UTC+3.0)
Stats Elevation 1,054 ft / 321 m (AMSL)
Location 44.225073° 43.081891°
Runways 1
Magnetic Variation 7.425° E

METAR

URMM 211930Z 06002MPS 9999 NSC 16/14 Q1019 R30/290050 NOSIG RMK QFE736/0981

Decode

TAF

TAF URMM 211700Z 2118/2218 27003G08MPS 9999 SCT030 TX24/2212Z TN14/2202Z TEMPO 2118/2206 09003G08MPS 3100 -SHRA BR BKN011 BKN030CB TEMPO 2206/2215 10003G08MPS 3100 -SHRA BKN011 BKN030CB

Decode

Departure Runways

ID Width Length Bearing (true) Bearing (mag) Surface Threshold Offset Overrun Length
12 197 ft / 60 m 12,766 ft / 3,891 m 122.28° 114.86° Concrete 0 ft / 0 m 240 ft / 73 m
30 197 ft / 60 m 12,766 ft / 3,891 m 302.31° 294.89° Concrete 0 ft / 0 m 250 ft / 76 m

URSS

Details ICAO URSS (AER)
Name Sochi
Region Russia
Timezone Europe/Moscow (UTC+3.0)
Stats Elevation 89 ft / 27 m (AMSL)
Location 43.444749° 39.947302°
Runways 2
Magnetic Variation 7.002° E

METAR

URSS 211930Z 06001MPS 9999 SCT020 19/17 Q1018 R02/090070 R06/090070 NOSIG RMK R06/07001MPS MT OBSC QFE762

Decode

TAF

TAF URSS 211657Z 2118/2218 05005MPS 9999 SCT030CB BKN100 TEMPO 2121/2206 3100 -SHRA SCT011 SCT030CB BKN100 BECMG 2206/2207 18005G10MPS SCT030CB SCT100 TEMPO 2209/2216 VRB06G11MPS -TSRA BECMG 2216/2217 05005MPS BKN015 BKN030CB

Decode

Destination Runways

ID Width Length Bearing (true) Bearing (mag) Surface Threshold Offset Overrun Length
02 161 ft / 49 m 7,267 ft / 2,215 m 28.98° 21.98° Concrete 0 ft / 0 m 0 ft / 0 m
06 164 ft / 50 m 9,531 ft / 2,905 m 64.90° 57.90° Concrete 262 ft / 80 m 0 ft / 0 m
20 161 ft / 49 m 7,267 ft / 2,215 m 208.99° 201.99° Concrete 0 ft / 0 m 0 ft / 0 m
24 164 ft / 50 m 9,531 ft / 2,905 m 244.92° 237.92° Concrete 0 ft / 0 m 0 ft / 0 m

Approach Navaids

Runway Type Ident Frequency Range Bearing (true) Bearing (mag) Slope Elevation
02 Localiser IAD 110.50 MHz 18 nm / 33 km 30.95° 23.95° - 89 ft / 27 m (AMSL)
02 Glidescope IAD 110.50 MHz 10 nm / 19 km 28.98° 21.98° 2.80° 89 ft / 27 m (AMSL)
06 Localiser ISO 111.10 MHz 18 nm / 33 km 65.82° 58.82° - 89 ft / 27 m (AMSL)
06 Glidescope ISO 111.10 MHz 10 nm / 19 km 64.91° 57.91° 2.80° 89 ft / 27 m (AMSL)

Popular Alternatives